Regional Weather Roundup
Issued by NWS

Home | Current Version | Previous Version | Graphics & Text | Print | Product List | Glossary On
Versions: 1 2 3 4 5 6 7 8 9 10 11 12 13 14 15 16 17 18 19 20 21 22 23 24 25 26 27 28 29 30 31 32 33 34 35 36 37 38 39 40 41 42 43 44 45 46 47 48 49 50
000
ASUS43 KDMX 290701
RWRIA

WEATHER ROUNDUP FOR IOWA
NATIONAL WEATHER SERVICE DES MOINES IA
200 AM CDT THU JUN 29 2017

NOTE: "FAIR" INDICATES FEW OR NO CLOUDS BELOW 12,000 FEET WITH NO
SIGNIFICANT WEATHER AND/OR OBSTRUCTIONS TO VISIBILITY.

* - THESE STATIONS ARE NOT NWS STATIONS...THUS NOT UNDER NWS
QUALITY CONTROL.  THEY ALSO DO NOT REPORT WEATHER SUCH
AS PRECIPITATION OR FOG.

IAZ001>003-012>014-020>022-031>034-043>046-290800-
   NORTHWEST IOWA

CITY           SKY/WX    TMP DP  RH WIND       PRES   REMARKS
CARROLL *      MOCLDY    70  68  94 CALM      29.73R
CHEROKEE *     CLEAR     64  64  97 CALM      29.73R
DENISON *      CLEAR     68  66  94 CALM      29.74R
LE MARS *      CLEAR     63  59  88 CALM      29.73S
ORANGE CITY *  CLEAR     68  63  83 NE5       29.74R
SHELDON *      CLEAR     63  61  94 NE7       29.72S
SIOUX CITY     CLEAR     65  64  97 NW7       29.72R
SPENCER        CLEAR     67  61  81 N6        29.73R
STORM LAKE *   CLEAR     68  61  77 N9        29.73R
$$

IAZ055>058-069>071-079>083-090>094-290800-
   SOUTHWEST IOWA

CITY           SKY/WX    TMP DP  RH WIND       PRES   REMARKS
ATLANTIC *     CLEAR     66  66 100 CALM      29.74R
AUDUBON *      PTCLDY    66  63  88 CALM      29.76R
CLARINDA *     CLOUDY    73  72  94 S13       29.76R
COUNCIL BLFS * PTCLDY    68  68 100 SE5       29.74S
CRESTON *      CLOUDY    68  68 100 S9        29.77R
HARLAN  *      CLEAR     66  66 100 S7        29.78R
LAMONI         CLOUDY    68  65  90 SW17G23   29.79R
RED OAK *      PTCLDY    68  66  94 CALM      29.74R
SHENANDOAH *   MOCLDY    73  72  94 CALM      29.73S
$$

IAZ047>049-059>061-072>074-084-290800-
   CENTRAL IOWA

CITY           SKY/WX    TMP DP  RH WIND       PRES   REMARKS
AMES           CLOUDY    65  65 100 S6        29.71R
ANKENY *       CLOUDY    68  66  94 S6        29.73R
BOONE *        CLEAR     66  64  94 SW8       29.71R
CHARITON *     CLOUDY    66  63  88 S9G17     29.76R
DES MOINES     CLOUDY    68  66  93 S5        29.72R
GRINNELL*      CLOUDY    67  64  87 S13       29.76R
KNOXVILLE *    CLOUDY    68  63  83 S12       29.73S
MARSHALLTOWN   CLOUDY    68  66  93 S9        29.70R
NEWTON *       CLOUDY    68  64  88 S10G16    29.75R
PELLA *        CLOUDY    68  63  83 SW8G18    29.76R
PERRY *          N/A     66  65  97 S5        29.71R
$$

IAZ004>006-015-016-023>025-035-036-290800-
   NORTH CENTRAL IOWA

CITY           SKY/WX    TMP DP  RH WIND       PRES   REMARKS
ALGONA *       CLEAR     66  66 100 NE6       29.71S
ESTHERVILLE    CLEAR     64  62  93 NW9       29.70F
FORT DODGE *   CLEAR     66  63  88 CALM      29.72R
MASON CITY     CLEAR     65  64  97 W5        29.71R
FOREST CITY *    N/A     64  55  72 CALM      29.70S
WEBSTER CITY * CLEAR     64  64 100 W3        29.69R
IOWA FALLS *     N/A     66  64  91 CALM      29.72R
$$

IAZ007>011-017>019-026>030-037>042-050>054-066-290800-
   NORTHEAST IOWA

CITY           SKY/WX    TMP DP  RH WIND       PRES   REMARKS
CEDAR RAPIDS   CLOUDY    69  65  86 SW13      29.71R
CHARLES CITY * CLEAR     64  64 100 S6        29.70R
CLINTON *      CLOUDY    74  67  78 SW10      29.73R
DECORAH *      CLOUDY    64  63  94 S3        29.67R
DUBUQUE        MOCLDY    69  67  93 S12       29.69F
MONTICELLO *   MOCLDY    70  66  88 SW9       29.70R
OELWEIN *      CLOUDY    66  64  94 CALM      29.70R
WATERLOO       CLOUDY    67  64  90 NW6       29.68R
$$

IAZ064-065-067-068-078-290800-
   EAST CENTRAL IOWA

CITY           SKY/WX    TMP DP  RH WIND       PRES   REMARKS
IOWA CITY      MOCLDY    73  63  70 SW12G20   29.75R
MT. PLEASANT * MOCLDY    69  61  76 SW18G26   29.78R
MUSCATINE *    MOCLDY    73  61  64 SW12G18   29.75R
QUAD CITIES    MOCLDY    75  58  55 SW10      29.73R
$$

IAZ062-063-075>077-085>089-095>099-290800-
   SOUTHEAST IOWA

CITY           SKY/WX    TMP DP  RH WIND       PRES   REMARKS
BURLINGTON     MOCLDY    72  60  66 W6G20     29.77R
FAIRFIELD *    CLOUDY    70  61  73 S18G25    29.77R
FORT MADISON * CLOUDY    72  61  68 S5          N/A
KEOKUK *       CLOUDY    70  61  73 S8G16     29.75R
OSKALOOSA *      N/A     68  62  80 S14G23    29.75F
OTTUMWA        CLOUDY    69  64  84 SW16G30   29.76R
WASHINGTON *   MOCLDY    72  63  73 SW18G28   29.76S
$$

ABBREVIATIONS USED IN REMARKS
   TC - TEMPERATURES IN CELSIUS
  WCI - WIND CHILL INDEX
   HX - HEAT INDEX
  VSB - VISIBILITY
$$




USA.gov is the U.S. government's official web portal to all federal, state and local government web resources and services.